TimeCST,TemperatureF,Dew PointF,Humidity,Sea Level PressureIn,VisibilityMPH,Wind Direction,Wind SpeedMPH,Gust SpeedMPH,PrecipitationIn,Events,Conditions,WindDirDegrees,DateUTC
12:53 AM,48.9,44.1,83,30.14,10.0,Calm,Calm,-,N/A,,Overcast,0,2012-11-20 06:53:00
1:53 AM,51.1,45.0,80,30.16,10.0,Calm,Calm,-,N/A,,Overcast,0,2012-11-20 07:53:00
2:53 AM,51.1,45.0,80,30.14,10.0,Calm,Calm,-,N/A,,Overcast,0,2012-11-20 08:53:00
3:53 AM,51.1,46.0,83,30.13,10.0,South,3.5,-,N/A,,Overcast,170,2012-11-20 09:53:00
4:53 AM,53.1,44.1,71,30.12,10.0,SSW,3.5,-,N/A,,Overcast,210,2012-11-20 10:53:00
5:53 AM,50.0,43.0,77,30.12,10.0,Calm,Calm,-,N/A,,Overcast,0,2012-11-20 11:53:00
6:53 AM,46.9,42.1,83,30.14,10.0,Calm,Calm,-,N/A,,Clear,0,2012-11-20 12:53:00
7:53 AM,50.0,44.1,80,30.14,10.0,Calm,Calm,-,N/A,,Clear,0,2012-11-20 13:53:00
8:53 AM,54.0,45.0,72,30.14,10.0,WSW,8.1,-,N/A,,Clear,250,2012-11-20 14:53:00
9:53 AM,57.9,46.0,65,30.13,10.0,WSW,6.9,-,N/A,,Clear,250,2012-11-20 15:53:00
10:53 AM,60.1,46.9,62,30.12,10.0,West,6.9,-,N/A,,Clear,270,2012-11-20 16:53:00
11:53 AM,62.1,48.0,60,30.08,10.0,WSW,5.8,-,N/A,,Clear,250,2012-11-20 17:53:00
12:53 PM,62.6,48.2,59,30.07,10.0,WNW,4.6,-,N/A,,Clear,290,2012-11-20 18:53:00
1:53 PM,64.9,48.0,54,30.04,10.0,SSW,3.5,-,N/A,,Clear,210,2012-11-20 19:53:00
2:53 PM,66.0,48.0,52,30.05,10.0,Calm,Calm,-,N/A,,Clear,0,2012-11-20 20:53:00
3:53 PM,66.0,50.0,56,30.06,10.0,Calm,Calm,-,N/A,,Clear,0,2012-11-20 21:53:00
4:53 PM,63.0,46.9,56,30.07,10.0,Calm,Calm,-,N/A,,Clear,0,2012-11-20 22:53:00
5:53 PM,55.9,45.0,67,30.11,10.0,North,5.8,-,N/A,,Clear,350,2012-11-20 23:53:00
6:53 PM,53.1,43.0,69,30.13,10.0,North,5.8,-,N/A,,Clear,360,2012-11-21 00:53:00
7:53 PM,50.0,42.1,74,30.14,10.0,Calm,Calm,-,N/A,,Clear,0,2012-11-21 01:53:00
8:53 PM,50.0,43.0,77,30.16,8.0,Calm,Calm,-,N/A,,Clear,0,2012-11-21 02:53:00
9:53 PM,45.0,41.0,86,30.16,7.0,Calm,Calm,-,N/A,,Clear,0,2012-11-21 03:53:00
10:53 PM,44.1,41.0,89,30.17,6.0,West,3.5,-,N/A,,Clear,270,2012-11-21 04:53:00
11:53 PM,45.0,42.1,90,30.18,5.0,Calm,Calm,-,N/A,,Clear,0,2012-11-21 05:53:00